When you browse on this site, cookies collect data to enhance your experience and personalize the content and advertising you see.
Visit our Privacy Policy to learn more. By continuing to use the site, you agree to this use of cookies and data.
  • In Österreich
  • Länderverzeichnis
  • Für 7 Tage
  • Wassertemperatur
  • Satellitenkarten
  • Wetterkarte
  • News
  • Widgets
  • user-avatar
    Anmelden

    Stündliche Wetter Biskira

    Heute, 20 November, Dienstag

    Zeit Temperatur Niederschläge Wind Luftdruck Luftfeuchtigkeit
    00:00 +16°C° 0 mm 3 m/S 744 mmHg 63%
    01:00 +16°C° 0 mm 3 m/S 744 mmHg 63%
    02:00 +16°C° 0 mm 3 m/S 744 mmHg 63%
    03:00 +14°C° 0 mm 3 m/S 744 mmHg 63%
    04:00 +14°C° 0 mm 3 m/S 744 mmHg 63%
    05:00 +14°C° 0 mm 3 m/S 745 mmHg 64%
    06:00 +13°C° 0 mm 3 m/S 745 mmHg 64%
    07:00 +14°C° 0 mm 4 m/S 746 mmHg 63%
    08:00 +15°C° 0 mm 4 m/S 747 mmHg 61%
    09:00 +16°C° 0 mm 5 m/S 747 mmHg 59%
    10:00 +17°C° 0 mm 5 m/S 747 mmHg 56%
    11:00 +19°C° 0 mm 4 m/S 748 mmHg 53%
    12:00 +19°C° 0 mm 4 m/S 748 mmHg 50%
    13:00 +20°C° 0 mm 4 m/S 748 mmHg 47%
    14:00 +20°C° 0 mm 3 m/S 748 mmHg 44%
    15:00 +21°C° 0 mm 3 m/S 748 mmHg 41%
    16:00 +20°C° 0 mm 2 m/S 748 mmHg 44%
    17:00 +19°C° 0 mm 2 m/S 749 mmHg 47%
    18:00 +18°C° 0 mm 2 m/S 749 mmHg 51%
    19:00 +18°C° 0 mm 2 m/S 750 mmHg 51%
    20:00 +17°C° 0 mm 2 m/S 751 mmHg 52%
    21:00 +17°C° 0 mm 2 m/S 751 mmHg 53%
    22:00 +17°C° 0 mm 2 m/S 751 mmHg 54%
    23:00 +16°C° 0 mm 2 m/S 752 mmHg 55%

    Morgen, 21 November, Mittwoch

    Zeit Temperatur Niederschläge Wind Luftdruck Luftfeuchtigkeit
    00:00 +16°C° 0 mm 1 m/S 752 mmHg 56%
    01:00 +16°C° 0 mm 1 m/S 752 mmHg 56%
    02:00 +15°C° 0 mm 1 m/S 752 mmHg 57%
    03:00 +15°C° 0 mm 1 m/S 752 mmHg 57%
    04:00 +15°C° 0 mm 1 m/S 753 mmHg 58%
    05:00 +15°C° 0 mm 1 m/S 753 mmHg 58%
    06:00 +14°C° 0 mm 1 m/S 753 mmHg 59%
    07:00 +16°C° 0 mm 1 m/S 754 mmHg 53%
    08:00 +18°C° 0 mm 1 m/S 754 mmHg 48%
    09:00 +20°C° 0 mm 1 m/S 755 mmHg 42%
    10:00 +21°C° 0 mm 1 m/S 755 mmHg 40%
    11:00 +20°C° 0 mm 2 m/S 754 mmHg 38%
    12:00 +21°C° 0 mm 2 m/S 754 mmHg 35%
    13:00 +21°C° 0 mm 2 m/S 754 mmHg 35%
    14:00 +23°C° 0 mm 2 m/S 754 mmHg 34%
    15:00 +23°C° 0 mm 2 m/S 754 mmHg 34%
    16:00 +21°C° 0 mm 2 m/S 754 mmHg 37%
    17:00 +21°C° 0 mm 1 m/S 755 mmHg 41%
    18:00 +20°C° 0 mm 1 m/S 755 mmHg 44%
    19:00 +20°C° 0 mm 1 m/S 755 mmHg 45%
    20:00 +19°C° 0 mm 1 m/S 756 mmHg 46%
    21:00 +19°C° 0 mm 1 m/S 756 mmHg 46%
    22:00 +19°C° 0 mm 1 m/S 756 mmHg 47%
    23:00 +18°C° 0 mm 1 m/S 756 mmHg 48%

    übermorgen, 22 November, Donnerstag

    Zeit Temperatur Niederschläge Wind Luftdruck Luftfeuchtigkeit
    00:00 +18°C° 0 mm 1 m/S 756 mmHg 48%
    01:00 +18°C° 0 mm 1 m/S 756 mmHg 48%
    02:00 +17°C° 0 mm 2 m/S 756 mmHg 48%
    03:00 +17°C° 0 mm 2 m/S 756 mmHg 48%
    04:00 +17°C° 0 mm 2 m/S 756 mmHg 48%
    05:00 +16°C° 0 mm 2 m/S 756 mmHg 49%
    06:00 +16°C° 0 mm 2 m/S 756 mmHg 49%
    07:00 +17°C° 0 mm 2 m/S 757 mmHg 46%
    08:00 +18°C° 0 mm 2 m/S 757 mmHg 42%
    09:00 +19°C° 0 mm 2 m/S 757 mmHg 38%
    10:00 +20°C° 0 mm 2 m/S 757 mmHg 36%
    11:00 +21°C° 0 mm 3 m/S 756 mmHg 34%
    12:00 +22°C° 0 mm 3 m/S 756 mmHg 32%
    13:00 +22°C° 0 mm 3 m/S 756 mmHg 32%
    14:00 +22°C° 0 mm 3 m/S 756 mmHg 31%
    15:00 +22°C° 0 mm 3 m/S 755 mmHg 31%
    16:00 +21°C° 0 mm 3 m/S 756 mmHg 34%
    17:00 +20°C° 0 mm 2 m/S 756 mmHg 37%
    18:00 +19°C° 0 mm 2 m/S 756 mmHg 41%
    19:00 +18°C° 0 mm 2 m/S 756 mmHg 41%
    20:00 +18°C° 0 mm 2 m/S 757 mmHg 42%
    21:00 +18°C° 0 mm 2 m/S 757 mmHg 43%
    22:00 +17°C° 0 mm 2 m/S 757 mmHg 44%
    23:00 +18°C° 0 mm 1 m/S 757 mmHg 44%

    23 November, Freitag

    Zeit Temperatur Niederschläge Wind Luftdruck Luftfeuchtigkeit
    00:00 +16°C° 0 mm 1 m/S 757 mmHg 45%
    01:00 +16°C° 0 mm 1 m/S 757 mmHg 46%
    02:00 +15°C° 0 mm 1 m/S 757 mmHg 46%
    03:00 +15°C° 0 mm 1 m/S 757 mmHg 47%
    04:00 +15°C° 0 mm 1 m/S 757 mmHg 47%
    05:00 +14°C° 0 mm 1 m/S 757 mmHg 48%
    06:00 +13°C° 0 mm 0 m/S 757 mmHg 48%
    07:00 +16°C° 0 mm 1 m/S 757 mmHg 43%
    08:00 +19°C° 0 mm 1 m/S 757 mmHg 38%
    09:00 +20°C° 0 mm 1 m/S 758 mmHg 33%
    10:00 +21°C° 0 mm 1 m/S 757 mmHg 32%
    11:00 +21°C° 0 mm 2 m/S 757 mmHg 31%
    12:00 +23°C° 0 mm 2 m/S 757 mmHg 30%
    13:00 +23°C° 0 mm 2 m/S 756 mmHg 30%
    14:00 +23°C° 0 mm 2 m/S 756 mmHg 30%
    15:00 +23°C° 0 mm 2 m/S 756 mmHg 30%
    16:00 +21°C° 0 mm 2 m/S 756 mmHg 33%
    17:00 +20°C° 0 mm 2 m/S 756 mmHg 36%
    18:00 +19°C° 0 mm 2 m/S 756 mmHg 39%
    19:00 +20°C° 0 mm 1 m/S 756 mmHg 40%
    20:00 +19°C° 0 mm 1 m/S 756 mmHg 41%
    21:00 +19°C° 0 mm 1 m/S 756 mmHg 42%
    22:00 +18°C° 0 mm 1 m/S 756 mmHg 43%
    23:00 +18°C° 0 mm 1 m/S 756 mmHg 45%

    24 November, Samstag

    Zeit Temperatur Niederschläge Wind Luftdruck Luftfeuchtigkeit
    00:00 +16°C° 0 mm 1 m/S 756 mmHg 47%
    01:00 +16°C° 0 mm 1 m/S 756 mmHg 47%
    02:00 +16°C° 0 mm 1 m/S 756 mmHg 47%
    03:00 +16°C° 0 mm 1 m/S 756 mmHg 47%
    04:00 +18°C° 0 mm 1 m/S 756 mmHg 47%
    05:00 +18°C° 0 mm 1 m/S 756 mmHg 47%
    06:00 +18°C° 0 mm 1 m/S 756 mmHg 47%
    07:00 +19°C° 0 mm 1 m/S 756 mmHg 43%
    08:00 +20°C° 0 mm 1 m/S 757 mmHg 39%
    09:00 +22°C° 0 mm 1 m/S 757 mmHg 36%
    10:00 +22°C° 0 mm 1 m/S 756 mmHg 35%
    11:00 +23°C° 0 mm 1 m/S 756 mmHg 33%
    12:00 +23°C° 0 mm 1 m/S 756 mmHg 32%
    13:00 +23°C° 0 mm 1 m/S 755 mmHg 32%
    14:00 +24°C° 0 mm 1 m/S 755 mmHg 32%
    15:00 +22°C° 0 mm 0 m/S 755 mmHg 32%
    16:00 +23°C° 0 mm 1 m/S 755 mmHg 35%
    17:00 +22°C° 0 mm 1 m/S 755 mmHg 38%
    18:00 +21°C° 0 mm 1 m/S 755 mmHg 41%
    19:00 +21°C° 0 mm 1 m/S 755 mmHg 41%
    20:00 +21°C° 0 mm 1 m/S 755 mmHg 42%
    21:00 +21°C° 0 mm 1 m/S 756 mmHg 42%
    22:00 +21°C° 0 mm 1 m/S 755 mmHg 43%
    23:00 +20°C° 0 mm 1 m/S 755 mmHg 44%

    25 November, Sonntag

    Zeit Temperatur Niederschläge Wind Luftdruck Luftfeuchtigkeit
    00:00 +20°C° 0 mm 1 m/S 755 mmHg 44%
    01:00 +20°C° 0 mm 1 m/S 755 mmHg 45%
    02:00 +19°C° 0 mm 1 m/S 754 mmHg 46%
    03:00 +19°C° 0 mm 1 m/S 754 mmHg 47%
    04:00 +19°C° 0 mm 1 m/S 754 mmHg 47%
    05:00 +19°C° 0 mm 1 m/S 754 mmHg 47%
    06:00 +18°C° 0 mm 2 m/S 754 mmHg 46%
    07:00 +19°C° 0 mm 2 m/S 754 mmHg 44%
    08:00 +20°C° 0 mm 2 m/S 754 mmHg 42%
    09:00 +21°C° 0 mm 2 m/S 754 mmHg 39%
    10:00 +23°C° 0.1 mm 2 m/S 754 mmHg 40%
    11:00 +23°C° 0.1 mm 2 m/S 753 mmHg 40%
    12:00 +23°C° 0.1 mm 1 m/S 753 mmHg 40%
    13:00 +23°C° 0.1 mm 1 m/S 753 mmHg 42%
    14:00 +23°C° 0.1 mm 1 m/S 753 mmHg 43%
    15:00 +23°C° 0.1 mm 1 m/S 752 mmHg 45%
    16:00 +21°C° 0.2 mm 2 m/S 753 mmHg 50%
    17:00 +20°C° 0.2 mm 2 m/S 753 mmHg 56%
    18:00 +20°C° 0.2 mm 2 m/S 753 mmHg 61%
    19:00 +19°C° 0.3 mm 2 m/S 754 mmHg 62%
    20:00 +19°C° 0.3 mm 3 m/S 754 mmHg 64%
    21:00 +19°C° 0.3 mm 3 m/S 754 mmHg 65%
    22:00 +19°C° 0 mm 3 m/S 754 mmHg 66%
    23:00 +18°C° 0 mm 3 m/S 753 mmHg 67%
    Mehr zeigen